EHI
0 0 0 0 0 0 0 0 0 0 0 0 0 0 0 0 0 0 0 0 0 0 0 0 0 0 0 0 0 0 0 0 0 0 0 0 0 0 0 0 0 0 0 0
0 0 0 0 0 0 0 0 0 0 0 0 0 0 0 0 0 0 0 0 0 0 0 0 0 0 0 0 0 0 0 0 0 0 0 0 0 0 0 0 0 0 0 0
0 0 0 0 0 0 0 0 0 0 0 0 0 0 0 0 0 0 0 0 0 0 0 0 0 0 0 0 0 0 0 0 0 0 0 0 0 0 0 0 0 0 0 0
0 0 0 0 0 0 0 0 0 0 0 0 0 0 0 0 0 0 0 0 0 0 0 0 0 0 0 0 0 0 0 0 0 0 0 0 0 0 0 0 0 0 0 0
0 0 0 0 0 0 0 0 0 0 0 0 0 0 0 0 0 0 0 0 0 0 0 0 0 0 0 0 0 0 0 0 0 0 0 0 0 0 0 0 0 0 0 0
0 0 0 0 0 0 0 0 0 0 0 0 0 0 0 0 0 0 0 0 0 0 0 0 0 0 0 0 0 0 0 0 0 0 0 0 0 0 0 0 0 0 0 0
0 0 0 0 0 0 0 0 0 0 0 0 0 0 0 0 0 0 0 0 0 0 0 0 0 0 0 0 0 0 0 0 0 0 0 0 0 0 0 0 0 0 0 0
0 0 0 0 0 0 0 0 0 0 0 0 0 0 0 0 0 0 0 0 0 0 0 0 0 0 0 0 0 0 0 0 0 0 0 0 0 0 0 0 0 0 0 0
0 0 0 0 0 0 0 0 0 0 0 0 0 0 0 0 0 0 0 0 0 0 0 0 0 0 0 0 0 0 0 0 0 0 0 0 0 0 0 0 0 0 0 0
0 0 0 0 0 0 0 0 0 0 0 0 0 0 0 0 0 0 0 0 0 0 0 0 0 0 0 0 0 0 0 0 0 0 0 0 0 0 0 0 0 0 0 0
0 0 0 0 0 0 0 0 0 0 0 0 0 0 0 0 0 0 0 0 0 0 0 0 0 0 0 0 0 0 0 0 0 0 0 0 0 0 0 0 0 0 0 0
0 0 0 0 0 0 0 0 0 0 0 0 0 0 0 0 0 0 0 0 0 0 0 0 0 0 0 0 0 0 0 0 0 0 0 0 0 0 0 0 0 0 0 0
0 0 0 0 0 0 0 0 0 0 0 0 0 0 0 0 0 0 0 0 0 0 0 0 0 0 0 0 0 0 0 0 0 0 0 0 0 0 0 0 0 0 0 0
0 0 0 0 0 0 0 0 0 0 0 0 0 0 0 0 0 0 0 0 0 0 0 0 0 0 0 0 0 0 0 0 0 0 0 0 0 0 0 0 0 0 0 0
0 0 0 0 0 0 0 0 0 0 0 0 0 0 0 0 0 0 0 0 0 0 0 0 0 0 0 0 0 0 0 0 0 0 0 0 0 0 0 0 0 0 0 0
0 0 0 0 0 0 0 0 0 0 0 0 0 0 0 0 0 0 0 0 0 0 0 0 0 0 0 0 0 0 0 0 0 0 0 0 0 0 0 0 0 0 0 0
0 0 0 0 0 0 0 0 0 0 0 0 0 0 0 0 0 0 0 0 0 0 0 0 0 0 0 0 0 0 0 0 0 0 0 0 0 0 0 0 0 0 0 0
0 0 0 0 0 0 0 0 0 0 0 0 0 0 0 0 0 0 0 0 0 0 0 0 0 0 0 0 0 0 0 0 0 0 0 0 0 0 0 0 0 0 0 0
0 0 0 0 0 0 0 0 0 0 0 0 0 0 0 0 0 0 0 0 0 0 0 0 0 0 0 0 0 0 0 0 0 0 0 0 0 0 0 0 0 0 0 0
0 0 0 0 0 0 0 0 0 0 0 0 0 0 0 0 0 0 0 0 0 0 0 0 0 0 0 0 0 0 0 0 0 0 0 0 0 0 0 0 0 0 0 0
0 0 0 0 0 0 0 0 0 0 0 0 0 0 0 0 0 0 0 0 0 0 0 0 0 0 0 0 0 0 0 0 0 0 0 0 0 0 0 0 0 0 0 0
0 0 0 0 0 0 0 0 0 0 0 0 0 0 0 0 0 0 0 0 0 0 0 0 0 0 0 0 0 0 0 0 0 0 0 0 0 0 0 0 0 0 0 0
0 0 0 0 0 0 0 0 0 0 0 0 0 0 0 0 0 0 0 0 0 0 0 0 0 0 0 0 0 0 0 0 0 0 0 0 0 0 0 0 0 0 0 0
0 0 0 0 0 0 0 0 0 0 0 0 0 0 0 0 0 0 0 0 0 0 0 0 0 0 0 0 0 0 0 0 0 0 0 0 0 0 0 0 0 0 0 0
0 0 0 0 0 0 0 0 0 0 0 0 0 0 0 0 0 0 0 0 0 0 0 0 0 0 0 0 0 0 0 0 0 0 0 0 0 0 0 0 0 0 0 0
0 0 0 0 0 0 0 0 0 0 0 0 0 0 0 0 0 0 0 0 0 0 0 0 0 0 0 0 0 0 0 0 0 0 0 0 0 0 0 0 0 0 0 0
0 0 0 0 0 0 0 0 0 0 0 0 0 0 0 0 0 0 0 0 0 0 0 0 0 0 0 0 0 0 0 0 0 0 0 0 0 0 0 0 0 0 0 0
Wind_Speed
20 21 18 18 17 18 22 20 15 14 17 18 11 10 9 5 4 8 10 12 12 12 11 11 12 11 11 12 11 12 12 11 10 9 8 8 7 7 6 6 6 4 3 3
18 19 19 20 20 20 22 22 22 17 17 10 7 6 6 5 7 10 11 11 11 12 12 12 13 13 12 12 10 11 12 11 9 9 8 7 7 6 6 5 4 3 3 3
11 12 9 8 12 16 15 14 15 20 19 10 9 8 5 5 8 10 11 11 12 13 12 12 12 14 13 11 11 11 11 10 9 8 8 7 7 6 5 4 3 3 3 3
8 8 5 6 4 7 10 12 14 13 11 7 6 3 2 2 6 8 10 11 11 12 12 11 11 12 12 12 11 11 10 9 8 8 8 7 6 6 4 2 2 2 3 4
5 7 7 6 1 3 5 6 12 15 12 6 1 2 0 1 2 7 9 10 10 11 13 13 13 13 14 12 11 11 10 8 7 8 8 6 6 4 3 2 2 2 3 4
4 5 5 5 2 2 2 5 6 12 12 6 2 1 2 4 4 8 11 12 12 13 14 13 11 13 14 12 11 10 9 8 7 7 7 6 5 3 2 2 2 3 4 4
5 4 7 6 3 3 2 5 3 6 8 6 4 1 3 6 8 10 12 13 14 13 12 11 11 13 14 11 9 9 9 9 8 7 6 6 4 3 2 2 3 4 5 5
3 3 6 3 2 2 4 4 3 1 4 7 8 8 8 9 10 11 13 13 13 13 11 9 10 13 14 10 9 10 10 9 8 6 5 5 5 3 3 3 3 4 4 6
6 7 5 2 3 3 3 3 1 2 5 12 10 8 9 9 10 10 12 12 11 14 13 9 7 11 14 9 10 11 10 8 7 6 5 4 4 3 2 2 2 4 4 5
4 6 5 4 2 2 3 2 3 6 8 8 12 12 12 11 10 10 10 11 11 14 14 10 9 10 12 10 9 10 9 7 6 5 4 3 3 2 2 2 3 4 5 5
5 6 4 2 1 2 5 7 10 11 10 12 17 14 12 11 10 10 10 9 10 12 13 12 11 11 9 8 10 10 8 6 5 4 3 2 2 2 3 3 4 6 4 4
6 5 4 1 3 5 6 8 10 14 13 9 11 15 13 11 10 10 10 10 12 13 13 11 11 9 7 7 8 9 7 5 3 3 2 2 2 3 6 6 11 12 12 12
3 2 3 4 5 5 6 8 9 11 13 13 10 12 13 11 9 10 11 11 12 12 11 10 10 8 6 6 7 7 6 4 3 3 2 2 2 3 5 6 9 11 13 16
4 5 4 4 4 6 10 11 12 12 11 11 11 11 12 12 11 11 10 10 11 11 10 10 10 7 5 6 7 7 6 5 4 2 1 2 2 3 3 5 7 6 10 15
2 2 5 8 10 11 10 13 15 13 12 10 9 11 12 12 11 9 9 10 11 11 9 9 9 6 5 6 7 6 4 3 2 1 1 2 3 3 3 5 6 6 6 8
5 7 9 11 13 11 11 13 15 12 11 11 11 11 11 12 11 10 8 8 10 10 8 8 7 5 5 6 6 5 4 5 3 1 2 2 3 3 4 5 5 6 7 8
10 9 9 11 12 12 10 10 13 13 12 12 12 12 13 13 12 10 8 7 9 8 7 7 6 5 6 6 5 3 2 3 4 2 2 3 3 3 4 5 5 6 7 10
5 7 10 16 17 14 11 11 12 13 12 12 13 12 12 12 11 10 9 9 10 9 7 6 6 6 6 5 4 2 1 1 2 2 3 3 4 3 5 6 7 7 7 10
5 8 10 11 11 13 13 13 12 12 13 13 13 12 11 11 11 10 8 9 9 7 4 5 10 7 5 4 4 2 2 2 2 2 3 6 5 5 5 5 6 7 9 8
7 10 13 13 12 13 14 13 14 13 12 12 14 13 12 10 9 9 9 7 4 4 5 6 6 5 4 3 4 2 2 2 2 3 3 3 4 5 5 6 7 8 8 8
10 12 14 15 13 12 13 14 15 14 11 11 13 13 12 9 8 8 9 6 3 4 6 8 4 2 2 3 3 2 2 2 3 3 3 4 5 5 6 6 8 8 8 8
10 12 14 15 16 13 11 11 14 15 13 12 13 13 12 10 9 8 7 4 4 7 5 3 2 3 4 4 2 2 2 3 3 3 4 4 5 6 6 7 7 8 8 8
11 13 14 15 16 15 13 12 12 13 13 12 12 11 10 8 6 6 5 3 4 7 4 2 4 6 6 3 2 2 3 3 4 4 4 5 5 5 6 7 7 7 8 8
13 14 14 14 16 17 15 12 12 11 12 11 10 10 10 8 6 4 4 8 9 8 4 4 6 6 5 2 2 3 3 4 4 5 5 4 4 5 6 7 7 7 8 9
13 14 15 15 14 12 14 14 14 13 13 10 10 8 6 5 6 5 5 6 9 7 4 5 6 6 4 2 3 3 3 4 5 5 4 5 5 6 6 7 7 8 8 8
11 10 9 10 11 11 11 10 10 9 10 10 7 6 6 6 7 6 5 5 6 6 3 2 3 4 3 3 4 4 4 5 6 5 6 6 6 7 7 7 9 8 8 8
10 10 11 11 9 9 9 9 10 9 9 10 8 6 6 6 6 5 5 4 3 3 2 3 3 3 3 4 4 4 4 5 5 6 6 6 6 6 7 8 8 8 8 9
Wind_Direction
256 261 259 253 242 224 222 226 237 250 259 270 281 291 291 288 191 154 148 146 144 139 135 130 125 123 125 124 123 122 117 115 116 115 114 112 108 105 100 94 92 88 74 38
276 271 264 257 248 236 229 228 235 255 268 271 285 289 286 266 193 171 162 154 146 141 139 137 134 132 129 126 124 121 119 120 122 120 115 112 109 106 99 92 86 70 47 16
287 300 287 263 245 223 220 221 224 239 249 265 282 283 276 237 197 179 164 156 152 150 146 142 140 138 134 129 123 119 120 124 125 121 115 112 111 103 98 93 76 51 21 352
288 307 316 300 289 200 210 221 215 234 253 254 264 280 274 244 184 166 158 153 147 142 135 131 128 127 123 123 121 121 122 124 123 118 113 110 104 100 97 88 62 35 344 331
291 308 305 319 353 158 179 235 215 227 243 248 253 304 347 10 168 151 145 139 133 130 131 130 132 131 124 120 119 121 124 124 122 118 115 111 105 101 91 70 40 352 326 330
293 312 320 314 323 143 126 289 225 210 226 221 167 293 329 17 67 106 113 118 120 121 124 125 129 129 124 124 123 124 123 118 113 112 113 112 109 98 78 64 11 339 328 320
252 277 280 287 298 114 141 283 316 204 205 173 176 160 74 57 68 89 102 111 116 118 121 126 129 125 121 120 119 119 114 108 104 105 109 109 99 88 71 42 6 344 321 312
203 245 274 316 55 181 248 304 335 190 147 122 108 90 81 78 83 94 102 106 111 111 109 111 120 120 115 112 113 112 109 105 101 99 100 99 93 79 59 30 357 332 318 313
201 225 257 280 255 283 294 300 339 109 117 123 114 104 98 92 93 94 100 103 107 111 106 94 98 116 115 114 115 110 105 103 102 94 83 83 81 63 36 8 341 317 309 304
268 269 266 270 278 344 8 32 73 104 116 116 116 117 110 106 101 99 100 104 111 109 104 93 85 96 110 115 112 109 107 105 102 98 87 70 55 33 13 337 316 304 298 303
268 276 291 286 144 85 79 86 88 82 88 112 118 116 113 109 105 105 103 97 99 103 102 99 98 97 102 109 111 107 103 101 97 92 89 61 28 348 324 278 275 303 295 297
228 240 205 248 125 123 113 107 110 108 97 90 112 117 113 107 106 106 101 99 98 99 102 103 102 98 96 103 110 111 108 103 99 90 71 48 4 331 319 314 320 325 327 325
214 98 111 105 104 107 109 112 109 109 115 111 104 112 112 106 101 99 99 101 104 108 110 108 102 96 94 100 102 104 108 106 90 72 51 15 344 323 316 318 320 328 332 332
153 129 130 147 132 117 115 111 102 96 97 105 108 106 105 104 101 99 100 105 110 109 107 105 100 94 97 99 96 94 89 83 82 64 24 336 309 298 296 309 319 319 328 329
154 159 144 127 117 118 120 119 112 107 105 98 99 104 108 109 105 102 105 109 106 103 103 104 102 97 93 93 91 89 83 75 70 39 343 310 298 295 296 303 309 310 312 320
101 94 117 129 134 135 134 132 125 122 118 112 106 102 102 104 105 103 104 112 112 113 113 108 103 101 94 91 90 81 62 47 52 10 323 309 303 303 308 311 312 313 317 321
134 142 147 149 151 149 146 141 134 130 123 119 117 115 111 107 101 95 87 86 97 102 105 107 103 96 89 90 89 82 61 17 5 356 323 312 307 308 313 313 312 313 312 315
176 171 169 163 157 148 132 123 124 123 120 123 123 117 114 113 112 110 106 101 93 81 76 91 99 93 91 95 91 83 55 359 337 325 319 313 316 321 316 314 314 313 310 312
140 140 137 137 137 132 127 124 119 115 120 123 117 109 105 107 112 113 109 104 103 99 89 99 104 90 84 93 96 61 39 3 345 337 328 328 329 320 317 313 310 309 309 311
119 123 123 119 119 124 124 121 118 116 117 117 112 108 105 106 111 107 96 83 75 102 108 101 94 91 83 72 85 57 28 1 344 331 320 315 316 313 313 313 312 309 307 308
122 123 122 119 113 112 120 124 122 119 116 114 114 114 113 108 105 104 102 92 67 92 100 105 96 97 96 85 69 48 18 353 337 324 316 312 310 307 306 307 308 308 307 309
121 122 120 119 115 109 106 111 114 114 110 106 108 113 113 108 98 85 77 98 115 111 96 86 84 100 97 78 52 23 358 339 324 314 305 300 299 301 303 304 304 305 306 307
120 121 121 121 118 112 103 102 107 110 113 116 119 119 115 110 106 111 106 98 101 106 94 79 93 88 71 57 24 358 339 324 313 305 297 290 288 291 297 302 302 304 305 305
124 121 119 119 117 112 106 101 99 100 101 100 104 111 115 107 80 65 104 120 111 97 72 70 69 60 45 29 353 333 318 308 299 291 289 289 290 292 296 299 301 301 300 301
122 124 126 126 118 114 115 113 105 102 99 96 90 81 77 90 108 103 90 95 102 91 58 38 36 31 24 346 327 313 303 294 292 296 301 301 296 297 298 297 297 298 299 298
124 122 116 112 117 123 125 120 115 116 115 109 96 85 87 89 93 91 84 80 85 87 70 31 8 2 343 323 310 302 297 304 312 310 297 295 294 296 296 297 297 296 295 294
108 110 109 106 106 112 116 118 121 122 123 120 112 104 101 98 94 90 88 82 72 57 35 9 351 334 318 309 304 301 299 298 298 297 294 290 289 290 292 293 294 294 294 293